Regional Weather Roundup
Issued by NWS

Home | Current Version | Previous Version | Graphics & Text | Print | Product List | Glossary On
Versions: 1 2 3 4 5 6 7 8 9 10 11 12 13 14 15 16 17 18 19 20 21 22 23 24 25 26 27 28 29 30 31 32 33 34 35 36 37 38 39 40 41 42 43 44 45 46 47 48 49 50
000
ASUS43 KDTX 291701
RWRMI
MICHIGAN HOURLY REGIONAL WEATHER ROUNDUP
NATIONAL WEATHER SERVICE DETROIT/PONTIAC MI
100 PM EDT SUN MAR 29 2015

NOTE: "FAIR" INDICATES FEW OR NO CLOUDS BELOW 12,000 FEET WITH NO
SIGNIFICANT WEATHER AND/OR OBSTRUCTION TO VISIBILITY.

MIZ047>049-052>055-059>063-066>070-074>076-081>083-291800-
SOUTHEAST LOWER MICHIGAN

CITY           SKY/WX    TMP DP  RH WIND       PRES   REMARKS
ADRIAN         PTSUNNY   39  20  46 SW23G32   30.12F WCI  28
ALMA           CLOUDY    41  14  34 S18G30    29.99F
ANN ARBOR      MOSUNNY   40  19  43 S16G30    30.11F WCI  31
BAD AXE        SUNNY     40  13  32 S23G30    30.01F WCI  30
CARO           MOSUNNY   41  12  29 S18G28    30.00F
DETROIT CITY   SUNNY     40  16  37 SW16G28   30.15F WCI  31
DETROIT        PTSUNNY   41  15  35 S22       30.16F
FLINT          MOSUNNY   42  14  32 S20G29    30.04F
GROSSE ILE     MOSUNNY   37  23  56 S18       30.16F WCI  27
HILLSDALE      MOSUNNY   40  17  39 S14G26    30.07F WCI  33
HOWELL         PTSUNNY   41  13  31 S18G30    30.04F

CITY           SKY/WX    TMP DP  RH WIND       PRES   REMARKS
JACKSON        PTSUNNY   39  15  37 S23G31    30.06F WCI  28
LAMBERTVILLE   MOSUNNY   41  19  42 S14G23    30.16F
LANSING        PTSUNNY   42  14  32 S22G29    30.03F
LAPEER         FAIR      39  11  31 S23       30.06F WCI  29
MASON          PTSUNNY   39  14  35 S13G22    30.04F WCI  32
MT. CLEMENS    PTSUNNY   40  17  38 S20G28    30.11F WCI  31
PONTIAC        PTSUNNY   38  13  35 S17G31    30.08F WCI  28
PORT HOPE        N/A     41  13  31 S14G23    30.00F
PORT HURON     SUNNY     37  18  44 S26G33    30.13F WCI  26
TRI CITIES     PTSUNNY   43  14  31 S21G28    29.99F
TROY           SUNNY     41  11  28 S14G24    30.14F
SAGINAW HB     PTSUNNY   41  16  36 S23       30.00F
$$
MIZ043>046-050>051-056>058-064>065-071>073-077>080-291800-
SOUTHWEST LOWER MICHIGAN

CITY           SKY/WX    TMP DP  RH WIND       PRES   REMARKS
BATTLE CREEK   PTSUNNY   41  15  35 S30G38    30.03F
BENTON HARBOR  CLOUDY    42  14  32 S21G30    30.00F
BIG RAPIDS     PTSUNNY   38  15  38 S12G31    29.90F WCI  30
COLDWATER      PTSUNNY   40  14  34 S17G25    30.07F WCI  31
FREMONT        FAIR      40   8  27 S26G38    29.92F WCI  29
HOLLAND        CLOUDY    42  16  34 S22G30    29.98F
GRAND RAPIDS   CLOUDY    42  15  33 S17G30    29.99F
IONIA          FAIR      40  14  33 SW22G30   29.99F WCI  30
KALAMAZOO      PTSUNNY   43  15  32 S23G33    30.03F
LUDINGTON      CLOUDY    38  20  49 S28G37    29.87F WCI  26
MARSHALL       PTSUNNY   40  14  35 S17G29    30.05F WCI  31
MOUNT PLEASANT CLOUDY    41  12  30 S20G29    29.95F
MUSKEGON       CLOUDY    38  16  40 S24G37    29.95F WCI  27
SOUTH HAVEN    CLOUDY    42  11  28 S18G26    29.99F
$$
MIZ016>042-291800-
NORTHERN LOWER MICHIGAN

CITY           SKY/WX    TMP DP  RH WIND       PRES   REMARKS
ALPENA         MOSUNNY   43   9  24 S22G28    29.88F
BEAVER ISLAND  CLOUDY    38  22  51 S16G29    29.74F WCI  29
BELLAIRE       CLOUDY    42  14  32 S15G23    29.81F
CADILLAC       CLOUDY    38  15  39 S18G28    29.83F WCI  28
CHARLEVOIX     CLOUDY    42  20  41 S18G30    29.80F
FRANKFORT      CLOUDY    41  16  36 S17G29    29.81F
GAYLORD        PTSUNNY   36  12  37 S23G32    29.81F WCI  24
GRAYLING       PTSUNNY   39   9  28 S20G25    29.86F WCI  30
HARBOR SPRINGS CLOUDY    39  15  36 S12G22    29.79F WCI  32
HOUGHTON LAKE  CLOUDY    40   9  28 S18G29    29.88F WCI  31
MANISTEE       CLOUDY    37  18  44 S16G36    29.85F WCI  28
OSCODA         MOSUNNY   38  17  42 S21G31    29.95F WCI  27
PELLSTON       CLOUDY    40  13  33 S15G23    29.79F WCI  32
ROGERS CITY    MOSUNNY   42  12  30 S14       29.86F
TRAVERSE CITY  CLOUDY    41  18  39 S13G29    29.79F
$$
MIZ007>008-015-291800-
EASTERN UPPER MICHIGAN

CITY           SKY/WX    TMP DP  RH WIND       PRES   REMARKS
KINROSS        PTSUNNY   37  16  41 S13G22    29.77F WCI  29
MACKINAC ISLAN CLOUDY    38  15  39 SW14G24   29.79F WCI  29
NEWBERRY       CLOUDY    32  24  73 S26G38    29.70F WCI  18
S. S. MARIE    PTSUNNY   37  16  42 S21G29    29.77F WCI  26
$$
MIZ004>006-011>014-085-291800-
CENTRAL UPPER MICHIGAN

CITY           SKY/WX    TMP DP  RH WIND       PRES   REMARKS
MANISTIQUE     FLURRIES  33  28  82 S21G32    29.71F WCI  22
ESCANABA       CLOUDY    32  27  80 S20       29.67F WCI  20
MENOMINEE      CLOUDY    32  27  80 SW18G26   29.69F WCI  20
SAWYER-GWINN   SNOW      30  27  86 SW21G37   29.58F VSB 1/2 WCI  17
$$
MIZ001>003-009>011-084-291800-
WESTERN UPPER MICHIGAN

CITY           SKY/WX    TMP DP  RH WIND       PRES   REMARKS
IRON MOUNTAIN  FRZ RAIN  30  27  88 S16G31    29.58F FOG     WCI  19
HOUGHTON       LGT SNOW  33  28  81 SW14G22   29.47F WCI  23
COPPER HARBOR    N/A     33  30  88 SW15G25   29.48F WCI  23
IRONWOOD       CLOUDY    34  28  80 SW13G24   29.46F WCI  25
$$

ABBREVIATIONS USED IN REMARKS
   TC - TEMPERATURE IN CELSIUS
  WCI - WIND CHILL INDEX
   HX - HEAT INDEX
  VSB - VISIBILITY



USA.gov is the U.S. government's official web portal to all federal, state and local government web resources and services.